This is the latest recevied weather packets stored in our database for station/object SV2ASS-2. If no packets are shown the sender has not sent any weather packets the latest 1 day(s).
| Time | Temp. | Humidity | Pressure | Rain* | Wind** | Luminosity | Snow |
|---|---|---|---|---|---|---|---|
| 1777840965 | 10° C | 47% | 1021.7 hPa | - | - | - | - |
| 1777840065 | 10.56° C | 46% | 1021.7 hPa | - | - | - | - |
| 1777839165 | 10.56° C | 47% | 1021.7 hPa | - | - | - | - |
| 1777838265 | 10.56° C | 46% | 1021.6 hPa | - | - | - | - |
| 1777837364 | 10.56° C | 47% | 1021.6 hPa | - | - | - | - |
| 1777836464 | 10.56° C | 46% | 1021.6 hPa | - | - | - | - |
| 1777835564 | 10.56° C | 45% | 1021.5 hPa | - | - | - | - |
| 1777834664 | 11.11° C | 45% | 1021.4 hPa | - | - | - | - |
| 1777833764 | 11.67° C | 43% | 1021.2 hPa | - | - | - | - |
| 1777832864 | 11.67° C | 46% | 1021 hPa | - | - | - | - |
| 1777831964 | 12.78° C | 41% | 1020.9 hPa | - | - | - | - |
| 1777831064 | 12.78° C | 46% | 1020.7 hPa | - | - | - | - |
| 1777830164 | 13.33° C | 44% | 1020.6 hPa | - | - | - | - |
| 1777829264 | 13.89° C | 45% | 1020.5 hPa | - | - | - | - |
| 1777828364 | 15° C | 41% | 1020.3 hPa | - | - | - | - |
| 1777827463 | 15.56° C | 44% | 1020.2 hPa | - | - | - | - |
| 1777826563 | 16.11° C | 46% | 1020.2 hPa | - | - | - | - |
| 1777825663 | 16.11° C | 43% | 1020.2 hPa | - | - | - | - |
| 1777824763 | 16.67° C | 39% | 1020.1 hPa | - | - | - | - |
| 1777823863 | 16.67° C | 37% | 1020.1 hPa | - | - | - | - |
| 1777822963 | 16.67° C | 37% | 1019.9 hPa | - | - | - | - |
| 1777822063 | 17.22° C | 33% | 1019.9 hPa | - | - | - | - |
| 1777821163 | 17.22° C | 32% | 1019.9 hPa | - | - | - | - |
| 1777820265 | 17.22° C | 31% | 1019.8 hPa | - | - | - | - |
| 1777819365 | 17.78° C | 34% | 1020 hPa | - | - | - | - |
* Rain since midnight (hover to see other rain measurements)
** Current wind speed in m/s (hover to see current wind gust speed)